Content
SEND FEEDBACK

Daily
Averages
Monthly
Summary
United States of America

SULPHUR, LOUISIANA


Home > North America > United States > Louisiana
Elevation: 10 feet     Latitude: 30 13N     Longitude: 093 23W

WEATHER
 
SELECT A DAY
Number of Records: 187,595;   Date Range: 11/22/06 - 7/26/14
 
SHARE

PRINT THIS DATA

[ ← Previous Day ]
WEATHER ALMANAC - APRIL 3, 2013
[ Next Day → ]
[ °C ]   °F
Weather ElementAverageHighLow
Temperature56 °F64.4 °F (12:35 am)50 °F (10:15 pm)
Dewpoint53.7 °F64.4 °F (12:55 am)46.4 °F (11:55 pm)
Humidity92.2 %100 % (12:55 am)82 % (2:55 pm)
Barometer29.94 in30.08 in (11:15 pm)29.81 in (3:55 am)
Wind Speed12 mph20.7 mph (3:55 am)
Wind Gust38 mph (3:35 am)
Weather ElementAverage
Visibility8.8 mi
Wind DirectionSW (224.2 °)

Weather ElementTotal
Precipitation4.51 in
Heating Degree Days7.8 (Base 65)
Growing Degree Days7.2 (Base 50)
Averaged from 71 records on April 3, 2013
WEATHER CONDITIONS BREAKOUT
WIND DIRECTION BREAKOUT
WEATHER BY HOUR - APRIL 3, 2013
[ °C ]   °F
Local TimeTemperatureDewpointHumidityBarometerVisibilityWind DirectionWind SpeedGust SpeedPrecipitationEventsConditions
12:35 AM64.4 °F62.6 °F94 %29.88 in0.8 miNE (50°)15.0 mph19.6 mph0.80 inRain-ThunderstormHeavy Thunderstorms and Rain
12:55 AM64.4 °F64.4 °F100 %29.86 in3.0 miNE (50°)13.8 mph23.0 mph1.12 inRain-ThunderstormThunderstorms and Rain
1:15 AM64.4 °F64.4 °F100 %29.86 in7.0 miNE (50°)8.1 mph18.4 mph0.03 inRain-ThunderstormThunderstorms and Rain
1:35 AM64.4 °F64.4 °F100 %29.89 in4.0 miNorth (10°)6.9 mph0.16 inRain-ThunderstormThunderstorms and Rain
1:55 AM64.4 °F64.4 °F100 %29.91 in2.5 miNorth (350°)9.2 mph0.39 inRain-ThunderstormHeavy Thunderstorms and Rain
2:15 AM64.4 °F62.6 °F94 %29.93 in3.0 miNNW (340°)11.5 mph16.1 mph0.19 inRain-ThunderstormHeavy Thunderstorms and Rain
2:35 AM62.6 °F62.6 °F100 %29.96 in2.0 miNW (320°)16.1 mph0.67 inRain-ThunderstormHeavy Thunderstorms and Rain
2:55 AM62.6 °F62.6 °F100 %29.93 in4.0 miNorth (360°)16.1 mph25.3 mph0.84 inRain-ThunderstormThunderstorms and Rain
3:15 AM62.6 °F60.8 °F94 %29.88 in7.0 miNNE (20°)19.6 mph28.8 mph0.06 inRain-ThunderstormRain
3:35 AM60.8 °F59.0 °F94 %29.82 in5.0 miNNE (20°)18.4 mph38.0 mph0.12 inRain-ThunderstormLight Thunderstorms and Rain
3:55 AM59.0 °F57.2 °F94 %29.81 in10.0 miNNE (20°)20.7 mph35.7 mph0.12 inMostly Cloudy
4:15 AM59.0 °F57.2 °F94 %29.83 in10.0 miNNE (20°)12.7 mph25.3 mphMostly Cloudy
4:35 AM59.0 °F55.4 °F88 %29.83 in10.0 miNNE (30°)12.7 mph23.0 mphMostly Cloudy
4:55 AM59.0 °F57.2 °F94 %29.87 in10.0 miNNE (30°)15.0 mph21.9 mphMostly Cloudy
5:15 AM59.0 °F55.4 °F88 %29.90 in10.0 miNNE (30°)8.1 mphScattered Clouds
5:35 AM59.0 °F55.4 °F88 %29.94 in10.0 miWSW (250°)8.1 mphMostly Cloudy
5:55 AM59.0 °F55.4 °F88 %29.94 in10.0 miNNW (330°)3.5 mphOvercast
6:15 AM57.2 °F55.4 °F94 %29.88 in10.0 miEast (90°)9.2 mphRainLight Rain
6:35 AM59.0 °F57.2 °F94 %29.90 in10.0 miNNE (20°)6.9 mphThunderstorm
6:55 AM59.0 °F55.4 °F88 %29.87 in10.0 miENE (70°)8.1 mph0.01 inRainLight Rain
7:15 AM57.2 °F55.4 °F94 %29.86 in10.0 miNNE (20°)8.1 mphOvercast
7:35 AM57.2 °F55.4 °F94 %29.88 in10.0 miNorth (350°)9.2 mphOvercast
7:55 AM57.2 °F55.4 °F94 %29.90 in10.0 miNNW (330°)9.2 mphOvercast
8:15 AM57.2 °F55.4 °F94 %29.89 in10.0 miNorth (360°)9.2 mphOvercast
8:35 AM57.2 °F55.4 °F94 %29.90 in10.0 miNorth (350°)10.4 mphOvercast
8:55 AM57.2 °F55.4 °F94 %29.90 in10.0 miNorth (350°)10.4 mphOvercast
9:15 AM57.2 °F55.4 °F94 %29.90 in10.0 miNNW (340°)11.5 mphOvercast
9:35 AM57.2 °F55.4 °F94 %29.90 in10.0 miNorth (350°)11.5 mph16.1 mphOvercast
9:55 AM57.2 °F55.4 °F94 %29.92 in7.0 miNNW (340°)12.7 mphOvercast
10:15 AM57.2 °F55.4 °F94 %29.94 in3.0 miNNW (340°)15.0 mph18.4 mphOvercast
10:35 AM55.4 °F55.4 °F100 %29.95 in3.0 miNNW (340°)19.6 mph25.3 mphOvercast
10:55 AM55.4 °F53.6 °F94 %29.96 in7.0 miNorth (350°)15.0 mph24.2 mphOvercast
11:15 AM55.4 °F53.6 °F94 %29.98 in10.0 miNorth (350°)16.1 mph21.9 mphOvercast
11:35 AM53.6 °F51.8 °F94 %29.99 in10.0 miNorth (350°)17.3 mph25.3 mphOvercast
11:55 AM53.6 °F51.8 °F94 %29.98 in10.0 miNorth (350°)13.8 mph25.3 mphOvercast
12:15 PM55.4 °F53.6 °F94 %29.98 in10.0 miNorth (360°)15.0 mph20.7 mphOvercast
12:35 PM53.6 °F51.8 °F94 %29.97 in10.0 miNorth (350°)16.1 mph23.0 mphOvercast
12:55 PM53.6 °F51.8 °F94 %29.97 in10.0 miNorth (350°)15.0 mph21.9 mphOvercast
1:15 PM53.6 °F51.8 °F94 %29.96 in10.0 miNorth (350°)12.7 mph19.6 mphOvercast
1:35 PM55.4 °F51.8 °F88 %29.95 in10.0 miNorth (350°)16.1 mph20.7 mphOvercast
1:55 PM55.4 °F51.8 °F88 %29.95 in10.0 miNorth (10°)10.4 mph19.6 mphOvercast
2:15 PM55.4 °F51.8 °F88 %29.94 in10.0 miNorth (10°)11.5 mph19.6 mphOvercast
2:35 PM57.2 °F53.6 °F88 %29.94 in10.0 miNorth (360°)9.2 mphOvercast
2:55 PM57.2 °F51.8 °F82 %29.95 in10.0 miNorth (360°)10.4 mphOvercast
3:15 PM55.4 °F51.8 °F88 %29.95 in10.0 miNorth (360°)10.4 mphOvercast
3:35 PM55.4 °F51.8 °F88 %29.94 in10.0 miNorth (350°)13.8 mph19.6 mphOvercast
3:55 PM55.4 °F51.8 °F88 %29.95 in10.0 miNNW (340°)16.1 mphOvercast
4:15 PM55.4 °F51.8 °F88 %29.94 in10.0 miNNW (340°)15.0 mph20.7 mphOvercast
4:35 PM53.6 °F51.8 °F94 %29.95 in10.0 miNorth (350°)12.7 mph21.9 mphOvercast
4:55 PM53.6 °F51.8 °F94 %29.93 in10.0 miNorth (360°)12.7 mph18.4 mphOvercast
5:15 PM53.6 °F50.0 °F88 %29.94 in10.0 miNorth (360°)15.0 mph21.9 mphOvercast
5:35 PM53.6 °F50.0 °F88 %29.94 in10.0 miNorth (350°)12.7 mph19.6 mphOvercast
5:55 PM53.6 °F50.0 °F88 %29.94 in10.0 miNorth (360°)11.5 mph24.2 mphOvercast
6:15 PM53.6 °F50.0 °F88 %29.92 in10.0 miNorth (10°)11.5 mph23.0 mphOvercast
6:35 PM51.8 °F50.0 °F94 %29.93 in10.0 miNorth (10°)10.4 mph19.6 mphOvercast
6:55 PM51.8 °F50.0 °F94 %29.94 in10.0 miNNE (30°)12.7 mph19.6 mphOvercast
7:15 PM51.8 °F48.2 °F88 %29.94 in10.0 miNorth (10°)11.5 mph18.4 mphOvercast
7:35 PM51.8 °F48.2 °F88 %29.97 in10.0 miNorth (10°)9.2 mph16.1 mphOvercast
7:55 PM51.8 °F48.2 °F88 %30.00 in10.0 miNorth (360°)11.5 mph17.3 mphOvercast
8:15 PM51.8 °F48.2 °F88 %30.01 in10.0 miNorth (10°)10.4 mphOvercast
8:35 PM51.8 °F48.2 °F88 %30.06 in10.0 miNNW (330°)10.4 mphOvercast
8:55 PM51.8 °F48.2 °F88 %30.06 in10.0 miNorth (350°)11.5 mphOvercast
9:15 PM51.8 °F50.0 °F94 %30.05 in10.0 miNorth (10°)6.9 mphOvercast
9:35 PM51.8 °F48.2 °F88 %30.05 in10.0 miNorth (360°)11.5 mphOvercast
9:55 PM51.8 °F48.2 °F88 %30.06 in10.0 miNorth (360°)8.1 mphRainLight Rain
10:15 PM50.0 °F48.2 °F94 %30.06 in10.0 miNorth (10°)9.2 mphLight Drizzle
10:35 PM50.0 °F48.2 °F94 %30.06 in10.0 miNorth (10°)9.2 mphOvercast
10:55 PM50.0 °F48.2 °F94 %30.00 in10.0 miNE (50°)9.2 mph17.3 mphOvercast
11:15 PM50.0 °F48.2 °F94 %30.08 in10.0 miNW (310°)11.5 mph19.6 mphOvercast
11:35 PM50.0 °F48.2 °F94 %30.07 in10.0 miNorth (350°)10.4 mphOvercast
11:55 PM50.0 °F46.4 °F87 %30.07 in10.0 miNNW (340°)9.2 mphRainLight Rain
Hourly data recorded from KUXL, located miles away from Sulphur, Louisiana







STORIES FROM OUR PARTNERS